owner,sensor,date,latitude,longitude,vertical_datum,sea_water_practical_salinity,qcFlag 
TABS,ioos:station:wmo:42050:1,2015-11-01T00:00:00Z,28.8425,-94.2433,2.0,32.7922,11111222 
TABS,ioos:station:wmo:42050:1,2015-11-01T00:30:00Z,28.8425,-94.2433,2.0,32.6268,11111222 
TABS,ioos:station:wmo:42050:1,2015-11-01T01:00:00Z,28.8425,-94.2433,2.0,32.5145,11111222 
TABS,ioos:station:wmo:42050:1,2015-11-01T01:30:00Z,28.8425,-94.2433,2.0,32.5165,11111222 
TABS,ioos:station:wmo:42050:1,2015-11-01T02:00:00Z,28.8425,-94.2433,2.0,32.4506,11111222 
TABS,ioos:station:wmo:42050:1,2015-11-01T02:30:00Z,28.8425,-94.2433,2.0,32.4055,11111222 
TABS,ioos:station:wmo:42050:1,2015-11-01T03:00:00Z,28.8425,-94.2433,2.0,32.4008,11111222 
TABS,ioos:station:wmo:42050:1,2015-11-01T03:30:00Z,28.8425,-94.2433,2.0,32.4176,11111222 
TABS,ioos:station:wmo:42050:1,2015-11-01T04:00:00Z,28.8425,-94.2433,2.0,32.3956,11111222 
TABS,ioos:station:wmo:42050:1,2015-11-01T04:30:00Z,28.8425,-94.2433,2.0,32.2843,11111222 
TABS,ioos:station:wmo:42050:1,2015-11-01T05:00:00Z,28.8425,-94.2433,2.0,32.4167,11111222 
TABS,ioos:station:wmo:42050:1,2015-11-01T05:30:00Z,28.8425,-94.2433,2.0,32.4303,11111222 
TABS,ioos:station:wmo:42050:1,2015-11-01T06:00:00Z,28.8425,-94.2433,2.0,32.6088,11111222 
TABS,ioos:station:wmo:42050:1,2015-11-01T06:30:00Z,28.8425,-94.2433,2.0,32.6983,11111222 
TABS,ioos:station:wmo:42050:1,2015-11-01T07:00:00Z,28.8425,-94.2433,2.0,32.7221,11111222 
TABS,ioos:station:wmo:42050:1,2015-11-01T07:30:00Z,28.8425,-94.2433,2.0,32.8268,11111222 
TABS,ioos:station:wmo:42050:1,2015-11-01T08:00:00Z,28.8425,-94.2433,2.0,32.9338,11111222 
TABS,ioos:station:wmo:42050:1,2015-11-01T08:30:00Z,28.8425,-94.2433,2.0,33.0244,11111222 
TABS,ioos:station:wmo:42050:1,2015-11-01T09:00:00Z,28.8425,-94.2433,2.0,33.1194,11111222 
TABS,ioos:station:wmo:42050:1,2015-11-01T09:30:00Z,28.8425,-94.2433,2.0,33.2323,11111222 
TABS,ioos:station:wmo:42050:1,2015-11-01T10:00:00Z,28.8425,-94.2433,2.0,33.3354,11111222 
TABS,ioos:station:wmo:42050:1,2015-11-01T10:30:00Z,28.8425,-94.2433,2.0,33.4888,11111222 
TABS,ioos:station:wmo:42050:1,2015-11-01T11:00:00Z,28.8425,-94.2433,2.0,33.5307,11111222 
TABS,ioos:station:wmo:42050:1,2015-11-01T11:30:00Z,28.8425,-94.2433,2.0,33.6396,11111222 
TABS,ioos:station:wmo:42050:1,2015-11-01T12:00:00Z,28.8425,-94.2433,2.0,33.7926,11111222 
TABS,ioos:station:wmo:42050:1,2015-11-01T12:30:00Z,28.8425,-94.2433,2.0,33.9054,11111222 
TABS,ioos:station:wmo:42050:1,2015-11-01T13:00:00Z,28.8425,-94.2433,2.0,33.9736,11111222 
TABS,ioos:station:wmo:42050:1,2015-11-01T13:30:00Z,28.8425,-94.2433,2.0,33.983,11111222 
TABS,ioos:station:wmo:42050:1,2015-11-01T14:00:00Z,28.8425,-94.2433,2.0,33.995,11111222 
TABS,ioos:station:wmo:42050:1,2015-11-01T14:30:00Z,28.8425,-94.2433,2.0,33.9603,11111222 
TABS,ioos:station:wmo:42050:1,2015-11-01T15:00:00Z,28.8425,-94.2433,2.0,33.9682,11111222 
TABS,ioos:station:wmo:42050:1,2015-11-01T15:30:00Z,28.8425,-94.2433,2.0,33.9431,11111222 
TABS,ioos:station:wmo:42050:1,2015-11-01T16:00:00Z,28.8425,-94.2433,2.0,33.6344,11111222 
TABS,ioos:station:wmo:42050:1,2015-11-01T16:30:00Z,28.8425,-94.2433,2.0,33.6011,11111222 
TABS,ioos:station:wmo:42050:1,2015-11-01T17:00:00Z,28.8425,-94.2433,2.0,33.5075,11111222 
TABS,ioos:station:wmo:42050:1,2015-11-01T17:30:00Z,28.8425,-94.2433,2.0,33.4881,11111222 
TABS,ioos:station:wmo:42050:1,2015-11-01T18:00:00Z,28.8425,-94.2433,2.0,33.4691,11111222 
TABS,ioos:station:wmo:42050:1,2015-11-01T18:30:00Z,28.8425,-94.2433,2.0,33.4483,11111222 
TABS,ioos:station:wmo:42050:1,2015-11-01T19:00:00Z,28.8425,-94.2433,2.0,33.4659,11111222 
TABS,ioos:station:wmo:42050:1,2015-11-01T19:30:00Z,28.8425,-94.2433,2.0,33.4543,11111222 
TABS,ioos:station:wmo:42050:1,2015-11-01T20:00:00Z,28.8425,-94.2433,2.0,33.4551,11111222 
TABS,ioos:station:wmo:42050:1,2015-11-01T20:30:00Z,28.8425,-94.2433,2.0,33.4779,11111222 
TABS,ioos:station:wmo:42050:1,2015-11-01T21:00:00Z,28.8425,-94.2433,2.0,33.4816,11111222 
TABS,ioos:station:wmo:42050:1,2015-11-01T21:30:00Z,28.8425,-94.2433,2.0,33.4865,11111222 
TABS,ioos:station:wmo:42050:1,2015-11-01T22:00:00Z,28.8425,-94.2433,2.0,33.4894,11111222 
TABS,ioos:station:wmo:42050:1,2015-11-01T22:30:00Z,28.8425,-94.2433,2.0,33.5008,11111222 
TABS,ioos:station:wmo:42050:1,2015-11-01T23:00:00Z,28.8425,-94.2433,2.0,33.5118,11111222 
TABS,ioos:station:wmo:42050:1,2015-11-01T23:30:00Z,28.8425,-94.2433,2.0,33.5168,11111222 
TABS,ioos:station:wmo:42050:1,2015-11-02T00:00:00Z,28.8425,-94.2433,2.0,33.4001,11111222 
TABS,ioos:station:wmo:42050:1,2015-11-02T00:30:00Z,28.8425,-94.2433,2.0,33.4076,11111222 
TABS,ioos:station:wmo:42050:1,2015-11-02T01:00:00Z,28.8425,-94.2433,2.0,33.416,11111222 
TABS,ioos:station:wmo:42050:1,2015-11-02T01:30:00Z,28.8425,-94.2433,2.0,33.4074,11111222 
TABS,ioos:station:wmo:42050:1,2015-11-02T02:00:00Z,28.8425,-94.2433,2.0,33.4287,11111222 
TABS,ioos:station:wmo:42050:1,2015-11-02T02:30:00Z,28.8425,-94.2433,2.0,33.4428,11111222 
TABS,ioos:station:wmo:42050:1,2015-11-02T03:00:00Z,28.8425,-94.2433,2.0,33.4276,11111222 
TABS,ioos:station:wmo:42050:1,2015-11-02T03:30:00Z,28.8425,-94.2433,2.0,33.4192,11111222 
TABS,ioos:station:wmo:42050:1,2015-11-02T04:00:00Z,28.8425,-94.2433,2.0,33.4116,11111222 
TABS,ioos:station:wmo:42050:1,2015-11-02T04:30:00Z,28.8425,-94.2433,2.0,33.404,11111222 
TABS,ioos:station:wmo:42050:1,2015-11-02T05:00:00Z,28.8425,-94.2433,2.0,33.4065,11111222 
TABS,ioos:station:wmo:42050:1,2015-11-02T05:30:00Z,28.8425,-94.2433,2.0,33.393,11111222 
TABS,ioos:station:wmo:42050:1,2015-11-02T06:00:00Z,28.8425,-94.2433,2.0,33.388,11111222 
TABS,ioos:station:wmo:42050:1,2015-11-02T06:30:00Z,28.8425,-94.2433,2.0,33.3757,11111222 
TABS,ioos:station:wmo:42050:1,2015-11-02T07:00:00Z,28.8425,-94.2433,2.0,33.3742,11111222 
TABS,ioos:station:wmo:42050:1,2015-11-02T07:30:00Z,28.8425,-94.2433,2.0,33.3525,11111222 
TABS,ioos:station:wmo:42050:1,2015-11-02T08:00:00Z,28.8425,-94.2433,2.0,33.3388,11111222 
TABS,ioos:station:wmo:42050:1,2015-11-02T08:30:00Z,28.8425,-94.2433,2.0,33.3233,11111222 
TABS,ioos:station:wmo:42050:1,2015-11-02T09:00:00Z,28.8425,-94.2433,2.0,33.3124,11111222 
TABS,ioos:station:wmo:42050:1,2015-11-02T09:30:00Z,28.8425,-94.2433,2.0,33.3136,11111222 
TABS,ioos:station:wmo:42050:1,2015-11-02T10:00:00Z,28.8425,-94.2433,2.0,33.304,11111222 
TABS,ioos:station:wmo:42050:1,2015-11-02T10:30:00Z,28.8425,-94.2433,2.0,33.298,11111222 
TABS,ioos:station:wmo:42050:1,2015-11-02T11:00:00Z,28.8425,-94.2433,2.0,33.2899,11111222 
TABS,ioos:station:wmo:42050:1,2015-11-02T11:30:00Z,28.8425,-94.2433,2.0,33.2837,11111222 
TABS,ioos:station:wmo:42050:1,2015-11-02T12:00:00Z,28.8425,-94.2433,2.0,33.2753,11111222 
TABS,ioos:station:wmo:42050:1,2015-11-02T12:30:00Z,28.8425,-94.2433,2.0,33.2755,11111222 
TABS,ioos:station:wmo:42050:1,2015-11-02T13:00:00Z,28.8425,-94.2433,2.0,33.2779,11111222 
TABS,ioos:station:wmo:42050:1,2015-11-02T13:30:00Z,28.8425,-94.2433,2.0,33.2817,11111222 
TABS,ioos:station:wmo:42050:1,2015-11-02T14:00:00Z,28.8425,-94.2433,2.0,33.2858,11111222 
TABS,ioos:station:wmo:42050:1,2015-11-02T14:30:00Z,28.8425,-94.2433,2.0,33.2791,11111222 
TABS,ioos:station:wmo:42050:1,2015-11-02T15:00:00Z,28.8425,-94.2433,2.0,33.2695,11111222 
TABS,ioos:station:wmo:42050:1,2015-11-02T15:30:00Z,28.8425,-94.2433,2.0,33.264,11111222 
TABS,ioos:station:wmo:42050:1,2015-11-02T16:00:00Z,28.8425,-94.2433,2.0,33.2601,11111222 
TABS,ioos:station:wmo:42050:1,2015-11-02T16:30:00Z,28.8425,-94.2433,2.0,33.2495,11111222 
TABS,ioos:station:wmo:42050:1,2015-11-02T17:00:00Z,28.8425,-94.2433,2.0,33.2449,11111222 
TABS,ioos:station:wmo:42050:1,2015-11-02T17:30:00Z,28.8425,-94.2433,2.0,33.2375,11111222 
TABS,ioos:station:wmo:42050:1,2015-11-02T18:00:00Z,28.8425,-94.2433,2.0,33.2318,11111222 
TABS,ioos:station:wmo:42050:1,2015-11-02T18:30:00Z,28.8425,-94.2433,2.0,33.23,11111222 
TABS,ioos:station:wmo:42050:1,2015-11-02T19:00:00Z,28.8425,-94.2433,2.0,33.2103,11111222 
TABS,ioos:station:wmo:42050:1,2015-11-02T19:30:00Z,28.8425,-94.2433,2.0,33.2057,11111222 
TABS,ioos:station:wmo:42050:1,2015-11-02T20:00:00Z,28.8425,-94.2433,2.0,33.2038,11111222 
TABS,ioos:station:wmo:42050:1,2015-11-02T20:30:00Z,28.8425,-94.2433,2.0,33.2035,11111222 
TABS,ioos:station:wmo:42050:1,2015-11-02T21:00:00Z,28.8425,-94.2433,2.0,33.2085,11111222 
TABS,ioos:station:wmo:42050:1,2015-11-02T21:30:00Z,28.8425,-94.2433,2.0,33.2108,11111222 
TABS,ioos:station:wmo:42050:1,2015-11-02T22:00:00Z,28.8425,-94.2433,2.0,33.2148,11111222 
TABS,ioos:station:wmo:42050:1,2015-11-02T22:30:00Z,28.8425,-94.2433,2.0,33.2206,11111222 
TABS,ioos:station:wmo:42050:1,2015-11-02T23:00:00Z,28.8425,-94.2433,2.0,33.2388,11111222 
TABS,ioos:station:wmo:42050:1,2015-11-02T23:30:00Z,28.8425,-94.2433,2.0,33.2307,11111222 
TABS,ioos:station:wmo:42050:1,2015-11-03T00:00:00Z,28.8425,-94.2433,2.0,33.2405,11111222 
TABS,ioos:station:wmo:42050:1,2015-11-03T00:30:00Z,28.8425,-94.2433,2.0,33.0368,11111222 
TABS,ioos:station:wmo:42050:1,2015-11-03T01:00:00Z,28.8425,-94.2433,2.0,32.8836,11111222 
TABS,ioos:station:wmo:42050:1,2015-11-03T01:30:00Z,28.8425,-94.2433,2.0,32.9235,11111222 
TABS,ioos:station:wmo:42050:1,2015-11-03T02:00:00Z,28.8425,-94.2433,2.0,32.8228,11111222 
TABS,ioos:station:wmo:42050:1,2015-11-03T02:30:00Z,28.8425,-94.2433,2.0,32.8703,11111222 
TABS,ioos:station:wmo:42050:1,2015-11-03T03:00:00Z,28.8425,-94.2433,2.0,32.8934,11111222 
TABS,ioos:station:wmo:42050:1,2015-11-03T03:30:00Z,28.8425,-94.2433,2.0,32.9704,11111222 
TABS,ioos:station:wmo:42050:1,2015-11-03T04:00:00Z,28.8425,-94.2433,2.0,32.9937,11111222 
TABS,ioos:station:wmo:42050:1,2015-11-03T04:30:00Z,28.8425,-94.2433,2.0,33.0265,11111222 
TABS,ioos:station:wmo:42050:1,2015-11-03T05:00:00Z,28.8425,-94.2433,2.0,33.068,11111222 
TABS,ioos:station:wmo:42050:1,2015-11-03T05:30:00Z,28.8425,-94.2433,2.0,33.0778,11111222 
TABS,ioos:station:wmo:42050:1,2015-11-03T06:00:00Z,28.8425,-94.2433,2.0,33.1069,11111222 
TABS,ioos:station:wmo:42050:1,2015-11-03T06:30:00Z,28.8425,-94.2433,2.0,33.1195,11111222 
TABS,ioos:station:wmo:42050:1,2015-11-03T07:00:00Z,28.8425,-94.2433,2.0,33.1478,11111222 
TABS,ioos:station:wmo:42050:1,2015-11-03T07:30:00Z,28.8425,-94.2433,2.0,33.1642,11111222 
TABS,ioos:station:wmo:42050:1,2015-11-03T08:00:00Z,28.8425,-94.2433,2.0,33.1783,11111222 
TABS,ioos:station:wmo:42050:1,2015-11-03T08:30:00Z,28.8425,-94.2433,2.0,33.1872,11111222 
TABS,ioos:station:wmo:42050:1,2015-11-03T09:00:00Z,28.8425,-94.2433,2.0,33.2019,11111222 
TABS,ioos:station:wmo:42050:1,2015-11-03T09:30:00Z,28.8425,-94.2433,2.0,33.205,11111222 
TABS,ioos:station:wmo:42050:1,2015-11-03T10:00:00Z,28.8425,-94.2433,2.0,33.2026,11111222 
TABS,ioos:station:wmo:42050:1,2015-11-03T10:30:00Z,28.8425,-94.2433,2.0,33.2132,11111222 
TABS,ioos:station:wmo:42050:1,2015-11-03T11:00:00Z,28.8425,-94.2433,2.0,33.1154,11111222 
TABS,ioos:station:wmo:42050:1,2015-11-03T11:30:00Z,28.8425,-94.2433,2.0,33.117,11111222 
TABS,ioos:station:wmo:42050:1,2015-11-03T12:00:00Z,28.8425,-94.2433,2.0,33.1274,11111222 
TABS,ioos:station:wmo:42050:1,2015-11-03T12:30:00Z,28.8425,-94.2433,2.0,33.1542,11111222 
TABS,ioos:station:wmo:42050:1,2015-11-03T13:00:00Z,28.8425,-94.2433,2.0,33.1716,11111222 
TABS,ioos:station:wmo:42050:1,2015-11-03T13:30:00Z,28.8425,-94.2433,2.0,33.1625,11111222 
TABS,ioos:station:wmo:42050:1,2015-11-03T14:00:00Z,28.8425,-94.2433,2.0,33.171,11111222 
TABS,ioos:station:wmo:42050:1,2015-11-03T14:30:00Z,28.8425,-94.2433,2.0,33.1652,11111222 
TABS,ioos:station:wmo:42050:1,2015-11-03T15:00:00Z,28.8425,-94.2433,2.0,33.1552,11111222 
TABS,ioos:station:wmo:42050:1,2015-11-03T15:30:00Z,28.8425,-94.2433,2.0,33.1282,11111222 
TABS,ioos:station:wmo:42050:1,2015-11-03T16:00:00Z,28.8425,-94.2433,2.0,33.0905,11111222 
TABS,ioos:station:wmo:42050:1,2015-11-03T16:30:00Z,28.8425,-94.2433,2.0,33.0758,11111222 
TABS,ioos:station:wmo:42050:1,2015-11-03T17:00:00Z,28.8425,-94.2433,2.0,33.0249,11111222 
TABS,ioos:station:wmo:42050:1,2015-11-03T17:30:00Z,28.8425,-94.2433,2.0,33.0466,11111222 
TABS,ioos:station:wmo:42050:1,2015-11-03T18:00:00Z,28.8425,-94.2433,2.0,32.9997,11111222 
TABS,ioos:station:wmo:42050:1,2015-11-03T18:30:00Z,28.8425,-94.2433,2.0,32.9854,11111222 
TABS,ioos:station:wmo:42050:1,2015-11-03T19:00:00Z,28.8425,-94.2433,2.0,32.9866,11111222 
TABS,ioos:station:wmo:42050:1,2015-11-03T19:30:00Z,28.8425,-94.2433,2.0,33.035,11111222 
TABS,ioos:station:wmo:42050:1,2015-11-03T20:00:00Z,28.8425,-94.2433,2.0,33.0164,11111222 
TABS,ioos:station:wmo:42050:1,2015-11-03T20:30:00Z,28.8425,-94.2433,2.0,33.0045,11111222 
TABS,ioos:station:wmo:42050:1,2015-11-03T21:00:00Z,28.8425,-94.2433,2.0,33.0718,11111222 
TABS,ioos:station:wmo:42050:1,2015-11-03T21:30:00Z,28.8425,-94.2433,2.0,33.0544,11111222 
TABS,ioos:station:wmo:42050:1,2015-11-03T22:00:00Z,28.8425,-94.2433,2.0,33.0178,11111222 
TABS,ioos:station:wmo:42050:1,2015-11-03T22:30:00Z,28.8425,-94.2433,2.0,33.0061,11111222 
TABS,ioos:station:wmo:42050:1,2015-11-03T23:00:00Z,28.8425,-94.2433,2.0,32.9852,11111222 
TABS,ioos:station:wmo:42050:1,2015-11-03T23:30:00Z,28.8425,-94.2433,2.0,32.9865,11111222 
TABS,ioos:station:wmo:42050:1,2015-11-04T00:00:00Z,28.8425,-94.2433,2.0,32.9899,11111222 
TABS,ioos:station:wmo:42050:1,2015-11-04T00:30:00Z,28.8425,-94.2433,2.0,32.974,11111222 
TABS,ioos:station:wmo:42050:1,2015-11-04T01:00:00Z,28.8425,-94.2433,2.0,32.9743,11111222 
TABS,ioos:station:wmo:42050:1,2015-11-04T01:30:00Z,28.8425,-94.2433,2.0,32.9745,11111222 
TABS,ioos:station:wmo:42050:1,2015-11-04T02:00:00Z,28.8425,-94.2433,2.0,32.9713,11111222 
TABS,ioos:station:wmo:42050:1,2015-11-04T02:30:00Z,28.8425,-94.2433,2.0,32.965,11111222 
TABS,ioos:station:wmo:42050:1,2015-11-04T03:00:00Z,28.8425,-94.2433,2.0,32.9717,11111222 
TABS,ioos:station:wmo:42050:1,2015-11-04T03:30:00Z,28.8425,-94.2433,2.0,32.9714,11111222 
TABS,ioos:station:wmo:42050:1,2015-11-04T04:00:00Z,28.8425,-94.2433,2.0,32.9728,11111222 
TABS,ioos:station:wmo:42050:1,2015-11-04T04:30:00Z,28.8425,-94.2433,2.0,32.9771,11111222 
TABS,ioos:station:wmo:42050:1,2015-11-04T05:00:00Z,28.8425,-94.2433,2.0,32.9816,11111222 
TABS,ioos:station:wmo:42050:1,2015-11-04T05:30:00Z,28.8425,-94.2433,2.0,32.9733,11111222 
TABS,ioos:station:wmo:42050:1,2015-11-04T06:00:00Z,28.8425,-94.2433,2.0,32.9694,11111222 
TABS,ioos:station:wmo:42050:1,2015-11-04T06:30:00Z,28.8425,-94.2433,2.0,32.9656,11111222 
TABS,ioos:station:wmo:42050:1,2015-11-04T07:00:00Z,28.8425,-94.2433,2.0,32.9594,11111222 
TABS,ioos:station:wmo:42050:1,2015-11-04T07:30:00Z,28.8425,-94.2433,2.0,32.961,11111222 
TABS,ioos:station:wmo:42050:1,2015-11-04T08:00:00Z,28.8425,-94.2433,2.0,32.9646,11111222 
TABS,ioos:station:wmo:42050:1,2015-11-04T08:30:00Z,28.8425,-94.2433,2.0,32.9752,11111222 
TABS,ioos:station:wmo:42050:1,2015-11-04T09:00:00Z,28.8425,-94.2433,2.0,32.9648,11111222 
TABS,ioos:station:wmo:42050:1,2015-11-04T09:30:00Z,28.8425,-94.2433,2.0,32.9708,11111222 
TABS,ioos:station:wmo:42050:1,2015-11-04T10:00:00Z,28.8425,-94.2433,2.0,32.9734,11111222 
TABS,ioos:station:wmo:42050:1,2015-11-04T10:30:00Z,28.8425,-94.2433,2.0,32.9829,11111222 
TABS,ioos:station:wmo:42050:1,2015-11-04T11:00:00Z,28.8425,-94.2433,2.0,32.9771,11111222 
TABS,ioos:station:wmo:42050:1,2015-11-04T11:30:00Z,28.8425,-94.2433,2.0,32.9844,11111222 
TABS,ioos:station:wmo:42050:1,2015-11-04T12:00:00Z,28.8425,-94.2433,2.0,32.9717,11111222 
TABS,ioos:station:wmo:42050:1,2015-11-04T12:30:00Z,28.8425,-94.2433,2.0,32.9815,11111222 
TABS,ioos:station:wmo:42050:1,2015-11-04T13:00:00Z,28.8425,-94.2433,2.0,32.9924,11111222 
TABS,ioos:station:wmo:42050:1,2015-11-04T13:30:00Z,28.8425,-94.2433,2.0,33.0086,11111222 
TABS,ioos:station:wmo:42050:1,2015-11-04T14:00:00Z,28.8425,-94.2433,2.0,32.9941,11111222 
TABS,ioos:station:wmo:42050:1,2015-11-04T14:30:00Z,28.8425,-94.2433,2.0,32.9933,11111222 
TABS,ioos:station:wmo:42050:1,2015-11-04T15:00:00Z,28.8425,-94.2433,2.0,32.9773,11111222 
TABS,ioos:station:wmo:42050:1,2015-11-04T15:30:00Z,28.8425,-94.2433,2.0,32.9533,11111222 
TABS,ioos:station:wmo:42050:1,2015-11-04T16:00:00Z,28.8425,-94.2433,2.0,32.9378,11111222 
TABS,ioos:station:wmo:42050:1,2015-11-04T16:30:00Z,28.8425,-94.2433,2.0,32.9371,11111222 
TABS,ioos:station:wmo:42050:1,2015-11-04T17:00:00Z,28.8425,-94.2433,2.0,32.8885,11111222 
TABS,ioos:station:wmo:42050:1,2015-11-04T17:30:00Z,28.8425,-94.2433,2.0,32.846,11111222 
TABS,ioos:station:wmo:42050:1,2015-11-04T18:00:00Z,28.8425,-94.2433,2.0,32.8779,11111222 
TABS,ioos:station:wmo:42050:1,2015-11-04T18:30:00Z,28.8425,-94.2433,2.0,32.8022,11111222 
TABS,ioos:station:wmo:42050:1,2015-11-04T19:00:00Z,28.8425,-94.2433,2.0,32.7742,11111222 
TABS,ioos:station:wmo:42050:1,2015-11-04T19:30:00Z,28.8425,-94.2433,2.0,32.7834,11111222 
TABS,ioos:station:wmo:42050:1,2015-11-04T20:00:00Z,28.8425,-94.2433,2.0,32.779,11111222 
TABS,ioos:station:wmo:42050:1,2015-11-04T20:30:00Z,28.8425,-94.2433,2.0,32.7243,11111222 
TABS,ioos:station:wmo:42050:1,2015-11-04T21:00:00Z,28.8425,-94.2433,2.0,32.6974,11111222 
TABS,ioos:station:wmo:42050:1,2015-11-04T21:30:00Z,28.8425,-94.2433,2.0,32.686,11111222 
TABS,ioos:station:wmo:42050:1,2015-11-04T22:00:00Z,28.8425,-94.2433,2.0,32.6602,11111222 
TABS,ioos:station:wmo:42050:1,2015-11-04T22:30:00Z,28.8425,-94.2433,2.0,32.6243,11111222 
TABS,ioos:station:wmo:42050:1,2015-11-04T23:00:00Z,28.8425,-94.2433,2.0,32.5824,11111222 
TABS,ioos:station:wmo:42050:1,2015-11-04T23:30:00Z,28.8425,-94.2433,2.0,32.5707,11111222 
TABS,ioos:station:wmo:42050:1,2015-11-05T00:00:00Z,28.8425,-94.2433,2.0,32.5962,11111222 
TABS,ioos:station:wmo:42050:1,2015-11-05T00:30:00Z,28.8425,-94.2433,2.0,32.6316,11111222 
TABS,ioos:station:wmo:42050:1,2015-11-05T01:00:00Z,28.8425,-94.2433,2.0,32.7,11111222 
TABS,ioos:station:wmo:42050:1,2015-11-05T01:30:00Z,28.8425,-94.2433,2.0,32.8386,11111222 
TABS,ioos:station:wmo:42050:1,2015-11-05T02:00:00Z,28.8425,-94.2433,2.0,32.9969,11111222 
TABS,ioos:station:wmo:42050:1,2015-11-05T02:30:00Z,28.8425,-94.2433,2.0,33.0236,11111222 
TABS,ioos:station:wmo:42050:1,2015-11-05T03:00:00Z,28.8425,-94.2433,2.0,33.2206,11111222 
TABS,ioos:station:wmo:42050:1,2015-11-05T03:30:00Z,28.8425,-94.2433,2.0,33.8439,11111222 
TABS,ioos:station:wmo:42050:1,2015-11-05T04:00:00Z,28.8425,-94.2433,2.0,33.8476,11111222 
TABS,ioos:station:wmo:42050:1,2015-11-05T04:30:00Z,28.8425,-94.2433,2.0,33.8485,11111222 
TABS,ioos:station:wmo:42050:1,2015-11-05T05:00:00Z,28.8425,-94.2433,2.0,33.8937,11111222 
TABS,ioos:station:wmo:42050:1,2015-11-05T05:30:00Z,28.8425,-94.2433,2.0,33.9275,11111222 
TABS,ioos:station:wmo:42050:1,2015-11-05T06:00:00Z,28.8425,-94.2433,2.0,33.9128,11111222 
TABS,ioos:station:wmo:42050:1,2015-11-05T06:30:00Z,28.8425,-94.2433,2.0,33.9652,11111222 
TABS,ioos:station:wmo:42050:1,2015-11-05T07:00:00Z,28.8425,-94.2433,2.0,33.9983,11111222 
TABS,ioos:station:wmo:42050:1,2015-11-05T07:30:00Z,28.8425,-94.2433,2.0,34.0296,11111222 
TABS,ioos:station:wmo:42050:1,2015-11-05T08:00:00Z,28.8425,-94.2433,2.0,34.0348,11111222 
TABS,ioos:station:wmo:42050:1,2015-11-05T08:30:00Z,28.8425,-94.2433,2.0,34.0239,11111222 
TABS,ioos:station:wmo:42050:1,2015-11-05T09:00:00Z,28.8425,-94.2433,2.0,34.0283,11111222 
TABS,ioos:station:wmo:42050:1,2015-11-05T09:30:00Z,28.8425,-94.2433,2.0,34.0213,11111222 
TABS,ioos:station:wmo:42050:1,2015-11-05T10:00:00Z,28.8425,-94.2433,2.0,34.037,11111222 
TABS,ioos:station:wmo:42050:1,2015-11-05T10:30:00Z,28.8425,-94.2433,2.0,33.9266,11111222 
TABS,ioos:station:wmo:42050:1,2015-11-05T11:00:00Z,28.8425,-94.2433,2.0,33.4599,11111222 
TABS,ioos:station:wmo:42050:1,2015-11-05T11:30:00Z,28.8425,-94.2433,2.0,33.2302,11111222 
TABS,ioos:station:wmo:42050:1,2015-11-05T12:00:00Z,28.8425,-94.2433,2.0,33.0499,11111222 
TABS,ioos:station:wmo:42050:1,2015-11-05T12:30:00Z,28.8425,-94.2433,2.0,33.0108,11111222 
TABS,ioos:station:wmo:42050:1,2015-11-05T13:00:00Z,28.8425,-94.2433,2.0,32.9777,11111222 
TABS,ioos:station:wmo:42050:1,2015-11-05T13:30:00Z,28.8425,-94.2433,2.0,32.92,11111222 
TABS,ioos:station:wmo:42050:1,2015-11-05T14:00:00Z,28.8425,-94.2433,2.0,32.9069,11111222 
TABS,ioos:station:wmo:42050:1,2015-11-05T14:30:00Z,28.8425,-94.2433,2.0,32.9184,11111222 
TABS,ioos:station:wmo:42050:1,2015-11-05T15:00:00Z,28.8425,-94.2433,2.0,32.8894,11111222 
TABS,ioos:station:wmo:42050:1,2015-11-05T15:30:00Z,28.8425,-94.2433,2.0,32.8556,11111222 
TABS,ioos:station:wmo:42050:1,2015-11-05T16:00:00Z,28.8425,-94.2433,2.0,32.8399,11111222 
TABS,ioos:station:wmo:42050:1,2015-11-05T16:30:00Z,28.8425,-94.2433,2.0,33.7458,11111222 
TABS,ioos:station:wmo:42050:1,2015-11-05T17:00:00Z,28.8425,-94.2433,2.0,34.2321,11111222 
TABS,ioos:station:wmo:42050:1,2015-11-05T17:30:00Z,28.8425,-94.2433,2.0,34.4457,11111222 
TABS,ioos:station:wmo:42050:1,2015-11-05T18:00:00Z,28.8425,-94.2433,2.0,34.4409,11111222 
TABS,ioos:station:wmo:42050:1,2015-11-05T18:30:00Z,28.8425,-94.2433,2.0,34.4212,11111222 
TABS,ioos:station:wmo:42050:1,2015-11-05T19:00:00Z,28.8425,-94.2433,2.0,34.4027,11111222 
TABS,ioos:station:wmo:42050:1,2015-11-05T19:30:00Z,28.8425,-94.2433,2.0,34.4177,11111222 
TABS,ioos:station:wmo:42050:1,2015-11-05T20:00:00Z,28.8425,-94.2433,2.0,34.3476,11111222 
TABS,ioos:station:wmo:42050:1,2015-11-05T20:30:00Z,28.8425,-94.2433,2.0,34.1987,11111222 
TABS,ioos:station:wmo:42050:1,2015-11-05T21:00:00Z,28.8425,-94.2433,2.0,33.9243,11111222 
TABS,ioos:station:wmo:42050:1,2015-11-05T21:30:00Z,28.8425,-94.2433,2.0,34.2002,11111222 
TABS,ioos:station:wmo:42050:1,2015-11-05T22:00:00Z,28.8425,-94.2433,2.0,33.8414,11111222 
TABS,ioos:station:wmo:42050:1,2015-11-05T22:30:00Z,28.8425,-94.2433,2.0,33.935,11111222 
TABS,ioos:station:wmo:42050:1,2015-11-05T23:00:00Z,28.8425,-94.2433,2.0,33.7145,11111222 
TABS,ioos:station:wmo:42050:1,2015-11-05T23:30:00Z,28.8425,-94.2433,2.0,33.7699,11111222 
TABS,ioos:station:wmo:42050:1,2015-11-06T00:00:00Z,28.8425,-94.2433,2.0,33.6213,11111222 
TABS,ioos:station:wmo:42050:1,2015-11-06T00:30:00Z,28.8425,-94.2433,2.0,33.7044,11111222 
TABS,ioos:station:wmo:42050:1,2015-11-06T01:00:00Z,28.8425,-94.2433,2.0,33.7986,11111222 
TABS,ioos:station:wmo:42050:1,2015-11-06T01:30:00Z,28.8425,-94.2433,2.0,33.7756,11111222 
TABS,ioos:station:wmo:42050:1,2015-11-06T02:00:00Z,28.8425,-94.2433,2.0,33.7563,11111222 
TABS,ioos:station:wmo:42050:1,2015-11-06T02:30:00Z,28.8425,-94.2433,2.0,33.7481,11111222 
TABS,ioos:station:wmo:42050:1,2015-11-06T03:00:00Z,28.8425,-94.2433,2.0,33.7607,11111222 
TABS,ioos:station:wmo:42050:1,2015-11-06T03:30:00Z,28.8425,-94.2433,2.0,33.7589,11111222 
TABS,ioos:station:wmo:42050:1,2015-11-06T04:00:00Z,28.8425,-94.2433,2.0,33.7586,11111222 
TABS,ioos:station:wmo:42050:1,2015-11-06T04:30:00Z,28.8425,-94.2433,2.0,33.7632,11111222 
TABS,ioos:station:wmo:42050:1,2015-11-06T05:00:00Z,28.8425,-94.2433,2.0,33.7656,11111222 
TABS,ioos:station:wmo:42050:1,2015-11-06T05:30:00Z,28.8425,-94.2433,2.0,33.7677,11111222 
TABS,ioos:station:wmo:42050:1,2015-11-06T06:00:00Z,28.8425,-94.2433,2.0,33.7682,11111222 
TABS,ioos:station:wmo:42050:1,2015-11-06T06:30:00Z,28.8425,-94.2433,2.0,33.7696,11111222 
TABS,ioos:station:wmo:42050:1,2015-11-06T07:00:00Z,28.8425,-94.2433,2.0,33.7746,11111222 
TABS,ioos:station:wmo:42050:1,2015-11-06T07:30:00Z,28.8425,-94.2433,2.0,33.7765,11111222 
TABS,ioos:station:wmo:42050:1,2015-11-06T08:00:00Z,28.8425,-94.2433,2.0,33.7896,11111222 
TABS,ioos:station:wmo:42050:1,2015-11-06T08:30:00Z,28.8425,-94.2433,2.0,33.8059,11111222 
TABS,ioos:station:wmo:42050:1,2015-11-06T09:00:00Z,28.8425,-94.2433,2.0,33.8141,11111222 
TABS,ioos:station:wmo:42050:1,2015-11-06T09:30:00Z,28.8425,-94.2433,2.0,33.8259,11111222 
TABS,ioos:station:wmo:42050:1,2015-11-06T10:00:00Z,28.8425,-94.2433,2.0,33.842,11111222 
TABS,ioos:station:wmo:42050:1,2015-11-06T10:30:00Z,28.8425,-94.2433,2.0,33.8498,11111222 
TABS,ioos:station:wmo:42050:1,2015-11-06T11:00:00Z,28.8425,-94.2433,2.0,33.8741,11111222 
TABS,ioos:station:wmo:42050:1,2015-11-06T11:30:00Z,28.8425,-94.2433,2.0,33.8509,11111222 
TABS,ioos:station:wmo:42050:1,2015-11-06T12:00:00Z,28.8425,-94.2433,2.0,33.8467,11111222 
TABS,ioos:station:wmo:42050:1,2015-11-06T12:30:00Z,28.8425,-94.2433,2.0,33.8656,11111222 